Time,TemperatureF,DewpointF,PressureIn,WindDirection,WindDirectionDegrees,WindSpeedMPH,WindSpeedGustMPH,Humidity,HourlyPrecipIn,Conditions,Clouds,dailyrainin,SoftwareType,DateUTC
2013-10-16 00:06:00,58.7,57.0,30.06,East,81,0.0,4.0,94,0.00,,,0.00,weatherlink.com 1.10,2013-10-16 04:06:00,
2013-10-16 00:21:00,58.6,57.0,30.07,NE,53,1.0,4.0,94,0.00,,,0.00,weatherlink.com 1.10,2013-10-16 04:21:00,
2013-10-16 00:36:00,58.6,57.0,30.05,ESE,107,2.0,3.0,94,0.00,,,0.00,weatherlink.com 1.10,2013-10-16 04:36:00,
2013-10-16 00:51:00,58.5,57.0,30.05,ENE,77,0.0,2.0,94,0.00,,,0.00,weatherlink.com 1.10,2013-10-16 04:51:00,
2013-10-16 01:06:00,58.4,57.0,30.05,ENE,77,0.0,1.0,94,0.00,,,0.00,weatherlink.com 1.10,2013-10-16 05:06:00,
2013-10-16 01:21:00,58.4,57.0,30.05,ENE,77,0.0,1.0,94,0.00,,,0.00,weatherlink.com 1.10,2013-10-16 05:21:00,
2013-10-16 01:36:00,58.4,57.0,30.04,ENE,58,1.0,3.0,94,0.00,,,0.00,weatherlink.com 1.10,2013-10-16 05:36:00,
2013-10-16 01:51:00,58.2,57.0,30.05,NE,50,1.0,3.0,94,0.00,,,0.00,weatherlink.com 1.10,2013-10-16 05:51:00,
2013-10-16 02:06:00,58.0,56.0,30.04,NNE,32,0.0,4.0,94,0.00,,,0.00,weatherlink.com 1.10,2013-10-16 06:06:00,
2013-10-16 02:21:00,57.9,56.0,30.04,NE,43,0.0,3.0,94,0.00,,,0.00,weatherlink.com 1.10,2013-10-16 06:21:00,
2013-10-16 02:36:00,57.7,56.0,30.04,NE,54,3.0,4.0,94,0.00,,,0.00,weatherlink.com 1.10,2013-10-16 06:36:00,
2013-10-16 02:51:00,57.6,56.0,30.04,ENE,60,2.0,5.0,94,0.00,,,0.00,weatherlink.com 1.10,2013-10-16 06:51:00,
2013-10-16 03:06:00,56.9,56.0,30.03,ENE,62,2.0,3.0,95,0.00,,,0.00,weatherlink.com 1.10,2013-10-16 07:06:00,
2013-10-16 03:21:00,56.8,55.0,30.03,East,87,2.0,3.0,95,0.00,,,0.00,weatherlink.com 1.10,2013-10-16 07:21:00,
2013-10-16 03:36:00,56.4,55.0,30.04,NE,41,0.0,3.0,94,0.00,,,0.00,weatherlink.com 1.10,2013-10-16 07:36:00,
2013-10-16 03:51:00,55.9,55.0,30.03,NE,41,0.0,2.0,95,0.00,,,0.00,weatherlink.com 1.10,2013-10-16 07:51:00,
2013-10-16 04:06:00,55.6,54.0,30.03,NE,41,0.0,1.0,95,0.00,,,0.00,weatherlink.com 1.10,2013-10-16 08:06:00,
2013-10-16 04:21:00,56.0,55.0,30.02,ENE,68,1.0,5.0,96,0.00,,,0.00,weatherlink.com 1.10,2013-10-16 08:21:00,
2013-10-16 04:36:00,56.3,55.0,30.02,East,95,1.0,4.0,95,0.00,,,0.00,weatherlink.com 1.10,2013-10-16 08:36:00,
2013-10-16 04:51:00,56.2,55.0,30.02,ENE,62,4.0,5.0,95,0.00,,,0.00,weatherlink.com 1.10,2013-10-16 08:51:00,
2013-10-16 05:06:00,55.9,55.0,30.02,NE,43,0.0,6.0,95,0.00,,,0.00,weatherlink.com 1.10,2013-10-16 09:06:00,
2013-10-16 05:22:00,55.6,54.0,30.02,NE,52,1.0,3.0,95,0.00,,,0.00,weatherlink.com 1.10,2013-10-16 09:22:00,
2013-10-16 05:37:00,55.4,54.0,30.02,NE,52,0.0,2.0,96,0.00,,,0.00,weatherlink.com 1.10,2013-10-16 09:37:00,
2013-10-16 05:52:00,55.0,54.0,30.02,NE,52,0.0,2.0,95,0.00,,,0.00,weatherlink.com 1.10,2013-10-16 09:52:00,
2013-10-16 06:07:00,54.3,53.0,30.03,NE,52,0.0,1.0,95,0.00,,,0.00,weatherlink.com 1.10,2013-10-16 10:07:00,
2013-10-16 06:22:00,53.7,53.0,30.03,NE,52,0.0,1.0,96,0.00,,,0.00,weatherlink.com 1.10,2013-10-16 10:22:00,
2013-10-16 06:37:00,53.1,52.0,30.03,NE,52,0.0,0.0,95,0.00,,,0.00,weatherlink.com 1.10,2013-10-16 10:37:00,
2013-10-16 06:52:00,52.8,52.0,30.03,NE,52,0.0,0.0,96,0.00,,,0.00,weatherlink.com 1.10,2013-10-16 10:52:00,
2013-10-16 07:07:00,52.4,51.0,30.03,NE,52,0.0,1.0,96,0.00,,,0.00,weatherlink.com 1.10,2013-10-16 11:07:00,
2013-10-16 07:22:00,52.0,51.0,30.03,NE,52,0.0,0.0,96,0.00,,,0.00,weatherlink.com 1.10,2013-10-16 11:22:00,
2013-10-16 07:37:00,52.5,52.0,30.04,NE,47,0.0,3.0,98,0.00,,,0.00,weatherlink.com 1.10,2013-10-16 11:37:00,
2013-10-16 07:52:00,52.8,52.0,30.04,East,83,2.0,3.0,97,0.00,,,0.00,weatherlink.com 1.10,2013-10-16 11:52:00,
2013-10-16 08:07:00,52.3,52.0,30.05,East,83,0.0,1.0,97,0.00,,,0.00,weatherlink.com 1.10,2013-10-16 12:07:00,
2013-10-16 08:22:00,53.1,53.0,30.05,East,81,0.0,1.0,98,0.00,,,0.00,weatherlink.com 1.10,2013-10-16 12:22:00,
2013-10-16 08:37:00,54.7,54.0,30.05,East,82,0.0,3.0,97,0.00,,,0.00,weatherlink.com 1.10,2013-10-16 12:37:00,
2013-10-16 08:52:00,56.7,55.0,30.06,East,82,0.0,1.0,95,0.00,,,0.00,weatherlink.com 1.10,2013-10-16 12:52:00,
2013-10-16 09:07:00,57.8,56.0,30.05,SE,139,2.0,4.0,92,0.00,,,0.00,weatherlink.com 1.10,2013-10-16 13:07:00,
2013-10-16 09:22:00,58.4,56.0,30.05,SE,139,0.0,1.0,93,0.00,,,0.00,weatherlink.com 1.10,2013-10-16 13:22:00,
2013-10-16 09:37:00,59.8,57.0,30.05,NNE,27,0.0,3.0,89,0.00,,,0.00,weatherlink.com 1.10,2013-10-16 13:37:00,
2013-10-16 09:52:00,60.6,57.0,30.05,NE,34,0.0,3.0,89,0.00,,,0.00,weatherlink.com 1.10,2013-10-16 13:52:00,
2013-10-16 10:07:00,61.2,58.0,30.05,NE,34,1.0,2.0,88,0.00,,,0.00,weatherlink.com 1.10,2013-10-16 14:07:00,
2013-10-16 10:22:00,61.3,58.0,30.05,North,354,3.0,3.0,89,0.00,,,0.00,weatherlink.com 1.10,2013-10-16 14:22:00,
2013-10-16 10:37:00,61.6,58.0,30.05,North,354,0.0,2.0,89,0.00,,,0.00,weatherlink.com 1.10,2013-10-16 14:37:00,
2013-10-16 10:52:00,63.0,58.0,30.05,ENE,75,1.0,3.0,83,0.00,,,0.00,weatherlink.com 1.10,2013-10-16 14:52:00,
2013-10-16 11:07:00,63.9,58.0,30.05,SW,232,1.0,4.0,81,0.00,,,0.00,weatherlink.com 1.10,2013-10-16 15:07:00,
2013-10-16 11:22:00,64.7,58.0,30.05,SW,222,1.0,5.0,78,0.00,,,0.00,weatherlink.com 1.10,2013-10-16 15:22:00,
2013-10-16 11:37:00,65.4,57.0,30.04,West,280,2.0,5.0,75,0.00,,,0.00,weatherlink.com 1.10,2013-10-16 15:37:00,
2013-10-16 11:52:00,66.3,57.0,30.04,SSW,204,5.0,7.0,72,0.00,,,0.00,weatherlink.com 1.10,2013-10-16 15:52:00,
2013-10-16 12:08:00,66.9,58.0,30.03,SSW,198,4.0,7.0,72,0.00,,,0.00,weatherlink.com 1.10,2013-10-16 16:08:00,
2013-10-16 12:23:00,66.8,57.0,30.02,SSW,192,1.0,7.0,71,0.00,,,0.00,weatherlink.com 1.10,2013-10-16 16:23:00,
2013-10-16 12:38:00,66.9,58.0,30.03,SSW,201,3.0,4.0,73,0.00,,,0.00,weatherlink.com 1.10,2013-10-16 16:38:00,
2013-10-16 12:53:00,68.0,58.0,30.02,SW,232,1.0,7.0,71,0.00,,,0.00,weatherlink.com 1.10,2013-10-16 16:53:00,
2013-10-16 13:08:00,68.3,59.0,30.00,SW,229,4.0,7.0,71,0.00,,,0.00,weatherlink.com 1.10,2013-10-16 17:08:00,
2013-10-16 13:23:00,68.0,57.0,30.00,SW,229,2.0,7.0,69,0.00,,,0.00,weatherlink.com 1.10,2013-10-16 17:23:00,
2013-10-16 13:38:00,67.9,59.0,29.99,South,191,3.0,9.0,72,0.00,,,0.00,weatherlink.com 1.10,2013-10-16 17:38:00,
2013-10-16 13:53:00,67.8,59.0,29.99,WSW,253,5.0,5.0,73,0.00,,,0.00,weatherlink.com 1.10,2013-10-16 17:53:00,
2013-10-16 14:08:00,68.0,59.0,29.99,WNW,296,5.0,6.0,73,0.00,,,0.00,weatherlink.com 1.10,2013-10-16 18:08:00,
2013-10-16 14:23:00,68.5,59.0,29.98,SW,217,3.0,8.0,72,0.00,,,0.00,weatherlink.com 1.10,2013-10-16 18:23:00,
2013-10-16 14:38:00,68.7,59.0,29.97,WSW,237,1.0,4.0,71,0.00,,,0.00,weatherlink.com 1.10,2013-10-16 18:38:00,
2013-10-16 14:53:00,68.7,59.0,29.97,WNW,289,3.0,7.0,71,0.00,,,0.00,weatherlink.com 1.10,2013-10-16 18:53:00,
2013-10-16 15:08:00,70.5,60.0,29.96,WSW,256,6.0,7.0,70,0.00,,,0.00,weatherlink.com 1.10,2013-10-16 19:08:00,
2013-10-16 15:23:00,70.9,60.0,29.95,SSW,193,7.0,9.0,68,0.00,,,0.00,weatherlink.com 1.10,2013-10-16 19:23:00,
2013-10-16 15:38:00,70.8,60.0,29.95,WNW,300,1.0,7.0,68,0.00,,,0.00,weatherlink.com 1.10,2013-10-16 19:38:00,
2013-10-16 15:53:00,69.8,60.0,29.95,West,261,2.0,7.0,70,0.00,,,0.00,weatherlink.com 1.10,2013-10-16 19:53:00,
2013-10-16 16:08:00,69.5,60.0,29.95,SW,218,3.0,5.0,71,0.00,,,0.00,weatherlink.com 1.10,2013-10-16 20:08:00,
2013-10-16 16:23:00,69.2,59.0,29.95,WSW,243,4.0,7.0,70,0.00,,,0.00,weatherlink.com 1.10,2013-10-16 20:23:00,
2013-10-16 16:38:00,69.2,59.0,29.95,SSW,210,1.0,5.0,71,0.00,,,0.00,weatherlink.com 1.10,2013-10-16 20:38:00,
2013-10-16 16:53:00,68.7,59.0,29.94,SSW,199,4.0,5.0,71,0.00,,,0.00,weatherlink.com 1.10,2013-10-16 20:53:00,
2013-10-16 17:08:00,68.5,60.0,29.94,SSW,213,2.0,4.0,74,0.00,,,0.00,weatherlink.com 1.10,2013-10-16 21:08:00,
2013-10-16 17:23:00,68.1,59.0,29.94,SSW,194,2.0,5.0,73,0.00,,,0.00,weatherlink.com 1.10,2013-10-16 21:23:00,
2013-10-16 17:38:00,67.5,59.0,29.94,South,188,1.0,4.0,74,0.00,,,0.00,weatherlink.com 1.10,2013-10-16 21:38:00,
2013-10-16 17:53:00,67.3,59.0,29.95,South,188,0.0,1.0,75,0.00,,,0.00,weatherlink.com 1.10,2013-10-16 21:53:00,
2013-10-16 18:08:00,67.2,59.0,29.95,SW,220,0.0,2.0,75,0.00,,,0.00,weatherlink.com 1.10,2013-10-16 22:08:00,
2013-10-16 18:23:00,67.2,59.0,29.95,SW,222,0.0,1.0,76,0.00,,,0.00,weatherlink.com 1.10,2013-10-16 22:23:00,
2013-10-16 18:38:00,66.5,60.0,29.95,SW,222,0.0,1.0,79,0.00,,,0.00,weatherlink.com 1.10,2013-10-16 22:38:00,
2013-10-16 18:53:00,66.3,60.0,29.95,SW,222,0.0,1.0,79,0.00,,,0.00,weatherlink.com 1.10,2013-10-16 22:53:00,
2013-10-16 19:08:00,66.3,59.0,29.95,SW,222,0.0,0.0,78,0.00,,,0.00,weatherlink.com 1.10,2013-10-16 23:08:00,
2013-10-16 19:23:00,66.2,60.0,29.95,SW,222,0.0,1.0,80,0.00,,,0.00,weatherlink.com 1.10,2013-10-16 23:23:00,
2013-10-16 19:38:00,65.6,61.0,29.95,SW,222,0.0,0.0,84,0.00,,,0.00,weatherlink.com 1.10,2013-10-16 23:38:00,
2013-10-16 19:53:00,65.1,60.0,29.96,SW,222,0.0,0.0,84,0.00,,,0.00,weatherlink.com 1.10,2013-10-16 23:53:00,
2013-10-16 20:08:00,64.4,61.0,29.96,SW,222,0.0,0.0,87,0.00,,,0.00,weatherlink.com 1.10,2013-10-17 00:08:00,
2013-10-16 20:23:00,63.9,60.0,29.96,SW,222,0.0,0.0,87,0.00,,,0.00,weatherlink.com 1.10,2013-10-17 00:23:00,
2013-10-16 20:38:00,63.4,60.0,29.96,SW,222,0.0,0.0,88,0.00,,,0.00,weatherlink.com 1.10,2013-10-17 00:38:00,
2013-10-16 20:53:00,62.9,60.0,29.96,SW,222,0.0,1.0,90,0.00,,,0.00,weatherlink.com 1.10,2013-10-17 00:53:00,
2013-10-16 21:08:00,62.6,60.0,29.96,SW,222,1.0,1.0,91,0.00,,,0.00,weatherlink.com 1.10,2013-10-17 01:08:00,
2013-10-16 21:23:00,62.4,60.0,29.96,SW,222,0.0,0.0,91,0.00,,,0.00,weatherlink.com 1.10,2013-10-17 01:23:00,
2013-10-16 21:38:00,62.3,60.0,29.96,SW,222,0.0,1.0,92,0.00,,,0.00,weatherlink.com 1.10,2013-10-17 01:38:00,
2013-10-16 21:53:00,62.1,60.0,29.96,SW,222,0.0,0.0,92,0.00,,,0.00,weatherlink.com 1.10,2013-10-17 01:53:00,
2013-10-16 22:08:00,61.8,60.0,29.97,SW,226,0.0,2.0,93,0.00,,,0.00,weatherlink.com 1.10,2013-10-17 02:08:00,
2013-10-16 22:23:00,61.6,60.0,29.97,SW,226,0.0,0.0,93,0.00,,,0.00,weatherlink.com 1.10,2013-10-17 02:23:00,
2013-10-16 22:38:00,61.3,59.0,29.97,SW,226,0.0,0.0,93,0.00,,,0.00,weatherlink.com 1.10,2013-10-17 02:38:00,
2013-10-16 22:53:00,61.2,59.0,29.97,SW,226,0.0,2.0,93,0.00,,,0.00,weatherlink.com 1.10,2013-10-17 02:53:00,
2013-10-16 23:08:00,61.0,59.0,29.97,SW,226,0.0,0.0,93,0.00,,,0.00,weatherlink.com 1.10,2013-10-17 03:08:00,
2013-10-16 23:23:00,60.9,59.0,29.96,SW,226,0.0,0.0,94,0.00,,,0.00,weatherlink.com 1.10,2013-10-17 03:23:00,
2013-10-16 23:38:00,60.9,59.0,29.95,ESE,113,0.0,2.0,94,0.00,,,0.00,weatherlink.com 1.10,2013-10-17 03:38:00,
2013-10-16 23:53:00,60.9,59.0,29.95,ESE,113,0.0,0.0,94,0.00,,,0.00,weatherlink.com 1.10,2013-10-17 03:53:00,